• In Germany
  • List of Countries
  • For 7 days
  • Water Temperature
  • Satellite Maps
  • Weather Map
  • Weather Widgets
  • user-avatar
    Login

    Hourly Weather Kapan

    Today, 22 January, Monday

    Time Temperature Precipitation Wind Pressure Humidity
    00:00 +4°C° 0 mm 3 mps 685 mmHg 43%
    01:00 +4°C° 0 mm 3 mps 685 mmHg 43%
    02:00 +4°C° 0 mm 3 mps 684 mmHg 43%
    03:00 +5°C° 0 mm 2 mps 684 mmHg 44%
    04:00 +5°C° 0 mm 2 mps 684 mmHg 43%
    05:00 +5°C° 0 mm 2 mps 684 mmHg 43%
    06:00 +5°C° 0 mm 2 mps 683 mmHg 43%
    07:00 +6°C° 0 mm 2 mps 683 mmHg 42%
    08:00 +7°C° 0 mm 2 mps 683 mmHg 41%
    09:00 +8°C° 0 mm 2 mps 683 mmHg 40%
    10:00 +9°C° 0 mm 2 mps 683 mmHg 39%
    11:00 +12°C° 0 mm 2 mps 682 mmHg 38%
    12:00 +13°C° 0 mm 2 mps 682 mmHg 37%
    13:00 +13°C° 0 mm 2 mps 681 mmHg 37%
    14:00 +13°C° 0 mm 2 mps 681 mmHg 37%
    15:00 +13°C° 0 mm 2 mps 680 mmHg 37%
    16:00 +10°C° 0 mm 2 mps 680 mmHg 39%
    17:00 +9°C° 0 mm 2 mps 680 mmHg 40%
    18:00 +7°C° 0 mm 2 mps 680 mmHg 42%
    19:00 +6°C° 0 mm 2 mps 680 mmHg 40%
    20:00 +5°C° 0 mm 3 mps 679 mmHg 38%
    21:00 +5°C° 0 mm 3 mps 679 mmHg 36%
    22:00 +4°C° 0 mm 3 mps 679 mmHg 35%
    23:00 +4°C° 0 mm 3 mps 679 mmHg 34%

    Tomorrow, 23 January, Tuesday

    Time Temperature Precipitation Wind Pressure Humidity
    00:00 +4°C° 0 mm 3 mps 679 mmHg 34%
    01:00 +4°C° 0 mm 3 mps 679 mmHg 35%
    02:00 +3°C° 0 mm 3 mps 679 mmHg 36%
    03:00 +3°C° 0 mm 3 mps 679 mmHg 37%
    04:00 +3°C° 0 mm 3 mps 679 mmHg 38%
    05:00 +3°C° 0 mm 3 mps 679 mmHg 39%
    06:00 +3°C° 0 mm 3 mps 680 mmHg 39%
    07:00 +4°C° 0 mm 3 mps 680 mmHg 39%
    08:00 +5°C° 0 mm 3 mps 680 mmHg 38%
    09:00 +7°C° 0 mm 3 mps 680 mmHg 37%
    10:00 +8°C° 0 mm 3 mps 680 mmHg 34%
    11:00 +9°C° 0 mm 3 mps 680 mmHg 31%
    12:00 +11°C° 0 mm 3 mps 680 mmHg 29%
    13:00 +11°C° 0 mm 3 mps 680 mmHg 30%
    14:00 +11°C° 0 mm 3 mps 680 mmHg 31%
    15:00 +12°C° 0 mm 2 mps 679 mmHg 31%
    16:00 +9°C° 0 mm 2 mps 680 mmHg 34%
    17:00 +8°C° 0 mm 2 mps 680 mmHg 36%
    18:00 +6°C° 0 mm 2 mps 680 mmHg 39%
    19:00 +6°C° 0 mm 2 mps 680 mmHg 39%
    20:00 +6°C° 0 mm 2 mps 680 mmHg 39%
    21:00 +6°C° 0 mm 2 mps 680 mmHg 39%
    22:00 +6°C° 0 mm 2 mps 680 mmHg 40%
    23:00 +6°C° 0 mm 2 mps 680 mmHg 41%

    Day after tomorrow, 24 January, Wednesday

    Time Temperature Precipitation Wind Pressure Humidity
    00:00 +6°C° 0 mm 2 mps 680 mmHg 42%
    01:00 +6°C° 0 mm 2 mps 680 mmHg 45%
    02:00 +5°C° 0 mm 2 mps 681 mmHg 47%
    03:00 +5°C° 0 mm 2 mps 681 mmHg 50%
    04:00 +5°C° 0 mm 2 mps 681 mmHg 52%
    05:00 +5°C° 0 mm 2 mps 681 mmHg 54%
    06:00 +4°C° 0 mm 2 mps 681 mmHg 56%
    07:00 +5°C° 0 mm 2 mps 682 mmHg 54%
    08:00 +6°C° 0 mm 2 mps 682 mmHg 52%
    09:00 +6°C° 0 mm 2 mps 683 mmHg 50%
    10:00 +7°C° 0 mm 2 mps 683 mmHg 48%
    11:00 +8°C° 0 mm 2 mps 683 mmHg 45%
    12:00 +9°C° 0 mm 2 mps 683 mmHg 43%
    13:00 +9°C° 0 mm 2 mps 683 mmHg 43%
    14:00 +9°C° 0 mm 2 mps 683 mmHg 43%
    15:00 +9°C° 0 mm 2 mps 683 mmHg 43%
    16:00 +8°C° 0 mm 2 mps 683 mmHg 47%
    17:00 +7°C° 0 mm 1 mps 683 mmHg 51%
    18:00 +6°C° 0 mm 1 mps 684 mmHg 55%
    19:00 +6°C° 0 mm 1 mps 684 mmHg 56%
    20:00 +5°C° 0 mm 1 mps 684 mmHg 57%
    21:00 +5°C° 0 mm 1 mps 685 mmHg 58%
    22:00 +5°C° 0 mm 1 mps 685 mmHg 60%
    23:00 +4°C° 0 mm 1 mps 685 mmHg 61%

    25 January, Thursday

    Time Temperature Precipitation Wind Pressure Humidity
    00:00 +4°C° 0 mm 1 mps 685 mmHg 63%
    01:00 +4°C° 0 mm 1 mps 685 mmHg 65%
    02:00 +4°C° 0 mm 1 mps 685 mmHg 67%
    03:00 +4°C° 0 mm 1 mps 685 mmHg 69%
    04:00 +4°C° 0 mm 1 mps 685 mmHg 71%
    05:00 +3°C° 0 mm 1 mps 685 mmHg 74%
    06:00 +3°C° 0 mm 1 mps 686 mmHg 76%
    07:00 +4°C° 0 mm 1 mps 686 mmHg 76%
    08:00 +3°C° 0 mm 2 mps 686 mmHg 75%
    09:00 +3°C° 0 mm 2 mps 687 mmHg 75%
    10:00 +4°C° 0.1 mm 2 mps 686 mmHg 73%
    11:00 +5°C° 0.1 mm 2 mps 686 mmHg 72%
    12:00 +5°C° 0.1 mm 2 mps 686 mmHg 70%
    13:00 +5°C° 0.1 mm 2 mps 686 mmHg 71%
    14:00 +5°C° 0.1 mm 2 mps 686 mmHg 72%
    15:00 +4°C° 0.1 mm 3 mps 685 mmHg 73%
    16:00 +4°C° 0.1 mm 2 mps 685 mmHg 77%
    17:00 +4°C° 0.1 mm 2 mps 686 mmHg 81%
    18:00 +3°C° 0.1 mm 2 mps 686 mmHg 85%
    19:00 +3°C° 0.1 mm 2 mps 686 mmHg 85%
    20:00 +2°C° 0.1 mm 2 mps 686 mmHg 86%
    21:00 +2°C° 0.1 mm 2 mps 686 mmHg 86%
    22:00 +2°C° 0.1 mm 2 mps 686 mmHg 86%
    23:00 +2°C° 0.1 mm 2 mps 686 mmHg 86%

    26 January, Friday

    Time Temperature Precipitation Wind Pressure Humidity
    00:00 +1°C° 0.1 mm 2 mps 686 mmHg 86%
    01:00 +1°C° 0.2 mm 2 mps 686 mmHg 86%
    02:00 +1°C° 0.2 mm 2 mps 686 mmHg 86%
    03:00 +1°C° 0.2 mm 2 mps 686 mmHg 86%
    04:00 +1°C° 0.4 mm 2 mps 686 mmHg 87%
    05:00 +1°C° 0.4 mm 2 mps 686 mmHg 87%
    06:00 +1°C° 0.4 mm 2 mps 686 mmHg 87%
    07:00 +1°C° 0.5 mm 2 mps 686 mmHg 86%
    08:00 +1°C° 0.5 mm 2 mps 686 mmHg 85%
    09:00 +1°C° 0.5 mm 2 mps 686 mmHg 85%
    10:00 +2°C° 0.4 mm 2 mps 686 mmHg 83%
    11:00 +1°C° 0.4 mm 3 mps 685 mmHg 82%
    12:00 +2°C° 0.4 mm 3 mps 685 mmHg 80%
    13:00 +1°C° 0.7 mm 3 mps 685 mmHg 82%
    14:00 +2°C° 0.7 mm 2 mps 684 mmHg 83%
    15:00 +2°C° 0.7 mm 2 mps 684 mmHg 85%
    16:00 +1°C° 0.4 mm 2 mps 684 mmHg 85%
    17:00 +1°C° 0.4 mm 2 mps 684 mmHg 86%
    18:00 +1°C° 0.4 mm 2 mps 685 mmHg 86%
    19:00 -1°C° 0.3 mm 2 mps 685 mmHg 87%
    20:00 -1°C° 0.3 mm 2 mps 685 mmHg 87%
    21:00 -1°C° 0.3 mm 2 mps 685 mmHg 87%
    22:00 -1°C° 0.3 mm 2 mps 685 mmHg 88%
    23:00 -1°C° 0.3 mm 2 mps 685 mmHg 88%

    27 January, Saturday

    Time Temperature Precipitation Wind Pressure Humidity
    00:00 +1°C° 0.3 mm 1 mps 685 mmHg 88%
    01:00 +1°C° 0.2 mm 1 mps 685 mmHg 88%
    02:00 +1°C° 0.2 mm 1 mps 685 mmHg 89%
    03:00 0°C° 0.2 mm 1 mps 685 mmHg 89%
    04:00 0°C° 0.2 mm 1 mps 685 mmHg 89%
    05:00 0°C° 0.2 mm 1 mps 685 mmHg 89%
    06:00 0°C° 0.2 mm 1 mps 685 mmHg 89%
    07:00 0°C° 0.2 mm 1 mps 685 mmHg 88%
    08:00 -1°C° 0.2 mm 2 mps 686 mmHg 86%
    09:00 -1°C° 0.2 mm 2 mps 686 mmHg 84%
    10:00 -1°C° 0.2 mm 2 mps 686 mmHg 82%
    11:00 +1°C° 0.2 mm 2 mps 686 mmHg 81%
    12:00 +1°C° 0.2 mm 2 mps 686 mmHg 79%
    13:00 +1°C° 0.2 mm 2 mps 686 mmHg 79%
    14:00 +1°C° 0.2 mm 2 mps 686 mmHg 79%
    15:00 +1°C° 0.2 mm 2 mps 686 mmHg 79%
    16:00 +1°C° 0.2 mm 2 mps 686 mmHg 81%
    17:00 -1°C° 0.2 mm 2 mps 686 mmHg 84%
    18:00 -1°C° 0.2 mm 2 mps 687 mmHg 87%
    19:00 -2°C° 0.2 mm 2 mps 687 mmHg 86%
    20:00 -2°C° 0.2 mm 2 mps 687 mmHg 86%
    21:00 0°C° 0.2 mm 1 mps 688 mmHg 86%
    22:00 0°C° 0.2 mm 1 mps 688 mmHg 85%
    23:00 -1°C° 0.2 mm 1 mps 688 mmHg 85%
    Show more